| time (UTC) | temp F | wind direction | speed MPH | gust MPH | rain 1hr in | rain 24hr in | rain mn in | humidity % | barometer mb |
| 20260506091334 | 42 | 360 | 0.0 | 0.0 | 0.00 | 0.00 | 0.00 | 68 | 1008.8 |
| 20260506090823 | 42 | 360 | 0.0 | 0.0 | 0.00 | 0.00 | 0.00 | 68 | 1008.8 |
| 20260506090332 | 42 | 360 | 0.0 | 0.0 | 0.00 | 0.00 | 0.00 | 67 | 1008.9 |
| 20260506085822 | 42 | 360 | 0.0 | 0.0 | 0.00 | 0.00 | 0.00 | 67 | 1009.0 |
| 20260506085329 | 42 | 360 | 0.0 | 0.0 | 0.00 | 0.00 | 0.00 | 66 | 1009.0 |
| 20260506084837 | 42 | 360 | 0.0 | 0.0 | 0.00 | 0.00 | 0.00 | 66 | 1008.7 |
| 20260506084329 | 42 | 360 | 0.0 | 0.0 | 0.00 | 0.00 | 0.00 | 65 | 1008.8 |
| 20260506083836 | 42 | 360 | 0.0 | 0.0 | 0.00 | 0.00 | 0.00 | 65 | 1008.8 |
| 20260506083325 | 42 | 360 | 0.0 | 0.0 | 0.00 | 0.00 | 0.00 | 65 | 1008.8 |
| 20260506082829 | 42 | 360 | 0.0 | 0.0 | 0.00 | 0.00 | 0.00 | 65 | 1008.8 |
| 20260506082338 | 42 | 360 | 0.0 | 0.0 | 0.00 | 0.00 | 0.00 | 65 | 1008.7 |
| 20260506081828 | 43 | 360 | 0.0 | 0.0 | 0.00 | 0.00 | 0.00 | 65 | 1008.5 |
| 20260506081337 | 43 | 360 | 0.0 | 0.0 | 0.00 | 0.00 | 0.00 | 66 | 1008.6 |
| 20260506080846 | 43 | 360 | 0.0 | 0.0 | 0.00 | 0.00 | 0.00 | 66 | 1008.5 |
| 20260506080335 | 43 | 360 | 0.0 | 0.0 | 0.00 | 0.00 | 0.00 | 66 | 1008.4 |
| 20260506073326 | 44 | 360 | 0.0 | 0.0 | 0.00 | 0.00 | 0.00 | 61 | 1008.4 |
| 20260506072833 | 44 | 360 | 0.0 | 0.0 | 0.00 | 0.00 | 0.00 | 61 | 1008.3 |
| 20260506072323 | 44 | 360 | 0.0 | 0.0 | 0.00 | 0.00 | 0.00 | 60 | 1008.3 |
| 20260506071832 | 44 | 360 | 0.0 | 0.0 | 0.00 | 0.00 | 0.00 | 60 | 1008.2 |
| 20260506071324 | 44 | 360 | 0.0 | 0.0 | 0.00 | 0.00 | 0.00 | 60 | 1008.3 |
| 20260506070831 | 45 | 360 | 0.0 | 0.0 | 0.00 | 0.00 | 0.00 | 59 | 1008.3 |
| 20260506070339 | 45 | 360 | 0.0 | 0.0 | 0.00 | 0.00 | 0.00 | 59 | 1008.3 |
| 20260506062329 | 46 | 360 | 1.0 | 4.0 | 0.00 | 0.00 | 0.00 | 56 | 1008.5 |
| 20260506061838 | 46 | 360 | 1.0 | 4.0 | 0.00 | 0.00 | 0.00 | 55 | 1008.5 |
| 20260506061329 | 46 | 360 | 2.0 | 5.0 | 0.00 | 0.00 | 0.00 | 55 | 1008.4 |
| 20260506060837 | 46 | 360 | 3.0 | 5.0 | 0.00 | 0.00 | 0.00 | 54 | 1008.3 |
| 20260506060327 | 46 | 360 | 2.0 | 6.0 | 0.00 | 0.00 | 0.00 | 54 | 1008.3 |
| 20260506051334 | 48 | 360 | 6.0 | 9.0 | 0.00 | 0.00 | 0.00 | 53 | 1008.2 |
| 20260506050822 | 48 | 360 | 6.0 | 9.0 | 0.00 | 0.00 | 0.00 | 53 | 1008.2 |
| 20260506050332 | 48 | 360 | 5.0 | 9.0 | 0.00 | 0.00 | 0.00 | 53 | 1008.0 |
| 20260506044836 | 49 | 360 | 3.0 | 7.0 | 0.00 | 0.00 | 0.00 | 50 | 1008.1 |
| 20260506044326 | 49 | 360 | 4.0 | 9.0 | 0.00 | 0.00 | 0.00 | 49 | 1008.2 |
| 20260506043834 | 49 | 360 | 5.0 | 9.0 | 0.00 | 0.00 | 0.00 | 48 | 1008.1 |
| 20260506043324 | 49 | 360 | 5.0 | 9.0 | 0.00 | 0.00 | 0.00 | 48 | 1008.2 |
| 20260506042834 | 49 | 360 | 4.0 | 8.0 | 0.00 | 0.00 | 0.00 | 48 | 1008.1 |
| 20260506042322 | 49 | 39 | 2.0 | 7.0 | 0.00 | 0.00 | 0.00 | 48 | 1008.0 |
| 20260506041831 | 49 | 360 | 2.0 | 5.0 | 0.00 | 0.00 | 0.00 | 48 | 1007.9 |
| 20260506041324 | 49 | 360 | 2.0 | 5.0 | 0.00 | 0.00 | 0.00 | 48 | 1007.9 |
| 20260506040832 | 50 | 360 | 3.0 | 5.0 | 0.00 | 0.00 | 0.00 | 48 | 1007.8 |
| 20260506040322 | 50 | 360 | 2.0 | 5.0 | 0.00 | 0.00 | 0.00 | 48 | 1007.8 |
| 20260506035832 | 50 | 360 | 3.0 | 4.0 | 0.00 | 0.00 | 0.00 | 48 | 1007.7 |
| 20260506035340 | 50 | 360 | 2.0 | 3.0 | 0.00 | 0.00 | 0.00 | 47 | 1007.9 |
| 20260506034827 | 50 | 360 | 2.0 | 5.0 | 0.00 | 0.00 | 0.00 | 46 | 1007.8 |
| 20260506034337 | 50 | 360 | 2.0 | 7.0 | 0.00 | 0.00 | 0.00 | 46 | 1007.4 |
| 20260506033825 | 50 | 360 | 2.0 | 7.0 | 0.00 | 0.00 | 0.00 | 45 | 1007.3 |
| 20260506033351 | 51 | 360 | 2.0 | 5.0 | 0.00 | 0.00 | 0.00 | 45 | 1007.1 |
| 20260506032823 | 51 | 360 | 3.0 | 5.0 | 0.00 | 0.00 | 0.00 | 45 | 1007.2 |
| 20260506032332 | 51 | 360 | 3.0 | 7.0 | 0.00 | 0.00 | 0.00 | 45 | 1007.1 |
| 20260506031840 | 51 | 360 | 4.0 | 8.0 | 0.00 | 0.00 | 0.00 | 44 | 1007.2 |
| 20260506031331 | 51 | 32 | 4.0 | 8.0 | 0.00 | 0.00 | 0.00 | 43 | 1007.3 |
| 20260506030839 | 51 | 360 | 3.0 | 7.0 | 0.00 | 0.00 | 0.00 | 43 | 1007.2 |
| 20260506030330 | 52 | 360 | 4.0 | 11.0 | 0.00 | 0.00 | 0.00 | 43 | 1007.3 |
| 20260506025840 | 52 | 360 | 4.0 | 11.0 | 0.00 | 0.00 | 0.00 | 43 | 1007.4 |
| 20260506025332 | 52 | 360 | 5.0 | 9.0 | 0.00 | 0.00 | 0.00 | 43 | 1007.4 |
| 20260506024822 | 52 | 360 | 4.0 | 9.0 | 0.00 | 0.00 | 0.00 | 42 | 1007.3 |
| 20260506024330 | 52 | 360 | 5.0 | 11.0 | 0.00 | 0.00 | 0.00 | 43 | 1007.0 |
| 20260506023836 | 52 | 360 | 5.0 | 12.0 | 0.00 | 0.00 | 0.00 | 43 | 1007.0 |
| 20260506023327 | 52 | 360 | 8.0 | 13.0 | 0.00 | 0.00 | 0.00 | 42 | 1007.0 |
| 20260506022837 | 52 | 360 | 6.0 | 13.0 | 0.00 | 0.00 | 0.00 | 43 | 1006.9 |
| 20260506022328 | 52 | 360 | 4.0 | 8.0 | 0.00 | 0.00 | 0.00 | 45 | 1006.8 |
| 20260506021838 | 52 | 360 | 3.0 | 5.0 | 0.00 | 0.00 | 0.00 | 46 | 1006.9 |
| 20260506021331 | 52 | 360 | 1.0 | 6.0 | 0.00 | 0.00 | 0.00 | 47 | 1006.8 |
| 20260506020840 | 52 | 360 | 1.0 | 6.0 | 0.00 | 0.00 | 0.00 | 47 | 1006.7 |
| 20260506020329 | 52 | 360 | 0.0 | 3.0 | 0.00 | 0.00 | 0.00 | 47 | 1006.6 |
| 20260506015839 | 52 | 360 | 1.0 | 3.0 | 0.00 | 0.00 | 0.00 | 47 | 1006.4 |
| 20260506015349 | 52 | 360 | 1.0 | 3.0 | 0.00 | 0.00 | 0.00 | 46 | 1006.4 |
| 20260506014838 | 52 | 360 | 1.0 | 3.0 | 0.00 | 0.00 | 0.00 | 45 | 1006.1 |
| 20260506014330 | 52 | 360 | 2.0 | 3.0 | 0.00 | 0.00 | 0.00 | 45 | 1006.1 |
| 20260506013834 | 52 | 360 | 0.0 | 3.0 | 0.00 | 0.00 | 0.00 | 45 | 1006.1 |
| 20260506013325 | 52 | 360 | 0.0 | 4.0 | 0.00 | 0.00 | 0.00 | 44 | 1006.0 |
| 20260506012834 | 53 | 360 | 1.0 | 3.0 | 0.00 | 0.00 | 0.00 | 44 | 1006.0 |
| 20260506012324 | 53 | 360 | 2.0 | 3.0 | 0.00 | 0.00 | 0.00 | 43 | 1005.9 |
| 20260506011834 | 53 | 360 | 2.0 | 3.0 | 0.00 | 0.00 | 0.00 | 43 | 1005.9 |
| 20260506011325 | 53 | 360 | 1.0 | 3.0 | 0.00 | 0.00 | 0.00 | 42 | 1005.6 |
| 20260506010833 | 53 | 360 | 2.0 | 4.0 | 0.00 | 0.00 | 0.00 | 42 | 1005.4 |
| 20260506010323 | 53 | 360 | 3.0 | 4.0 | 0.00 | 0.00 | 0.00 | 42 | 1005.4 |
| 20260506005832 | 53 | 360 | 1.0 | 4.0 | 0.00 | 0.00 | 0.00 | 41 | 1005.5 |
| 20260506005342 | 54 | 360 | 1.0 | 5.0 | 0.00 | 0.00 | 0.00 | 41 | 1005.4 |
| 20260506004832 | 54 | 360 | 2.0 | 7.0 | 0.00 | 0.00 | 0.00 | 40 | 1005.4 |
| 20260506004345 | 54 | 360 | 4.0 | 7.0 | 0.00 | 0.00 | 0.00 | 40 | 1005.4 |
| 20260506003832 | 54 | 260 | 2.0 | 6.0 | 0.00 | 0.00 | 0.00 | 40 | 1005.4 |
| 20260506003324 | 54 | 360 | 2.0 | 7.0 | 0.00 | 0.00 | 0.00 | 39 | 1005.3 |
| 20260506002835 | 54 | 360 | 2.0 | 10.0 | 0.00 | 0.00 | 0.00 | 39 | 1005.3 |
| 20260506002346 | 55 | 260 | 3.0 | 10.0 | 0.00 | 0.00 | 0.00 | 38 | 1005.3 |
| 20260506001834 | 55 | 360 | 4.0 | 13.0 | 0.00 | 0.00 | 0.00 | 38 | 1005.3 |
| 20260506001327 | 55 | 360 | 6.0 | 13.0 | 0.00 | 0.00 | 0.00 | 36 | 1005.4 |
| 20260506000834 | 55 | 254 | 6.0 | 11.0 | 0.00 | 0.00 | 0.00 | 36 | 1005.3 |
| 20260506000324 | 55 | 360 | 4.0 | 13.0 | 0.00 | 0.00 | 0.00 | 37 | 1005.3 |
| 20260505235826 | 55 | 360 | 6.0 | 13.0 | 0.00 | 0.00 | 0.00 | 36 | 1005.3 |
| 20260505235336 | 55 | 360 | 6.0 | 13.0 | 0.00 | 0.00 | 0.00 | 36 | 1005.2 |
| 20260505234827 | 55 | 360 | 7.0 | 13.0 | 0.00 | 0.00 | 0.00 | 36 | 1005.3 |
| 20260505234338 | 55 | 360 | 4.0 | 15.0 | 0.00 | 0.00 | 0.00 | 38 | 1005.2 |
| 20260505233826 | 55 | 360 | 5.0 | 15.0 | 0.00 | 0.00 | 0.00 | 37 | 1005.3 |
| 20260505233335 | 55 | 360 | 6.0 | 13.0 | 0.00 | 0.00 | 0.00 | 37 | 1005.2 |
| 20260505232845 | 55 | 360 | 6.0 | 11.0 | 0.00 | 0.00 | 0.00 | 37 | 1005.3 |
| 20260505232356 | 55 | 360 | 6.0 | 11.0 | 0.00 | 0.00 | 0.00 | 37 | 1005.3 |
| 20260505231824 | 55 | 360 | 3.0 | 9.0 | 0.00 | 0.00 | 0.00 | 37 | 1005.3 |
| 20260505231402 | 55 | 259 | 2.0 | 10.0 | 0.00 | 0.00 | 0.00 | 38 | 1005.4 |
| 20260505230849 | 55 | 360 | 6.0 | 11.0 | 0.00 | 0.00 | 0.00 | 37 | 1005.4 |
| 20260505230339 | 55 | 360 | 6.0 | 11.0 | 0.00 | 0.00 | 0.00 | 37 | 1005.5 |
| 20260505225827 | 55 | 360 | 7.0 | 11.0 | 0.00 | 0.00 | 0.00 | 37 | 1005.5 |
| 20260505225335 | 55 | 360 | 5.0 | 11.0 | 0.00 | 0.00 | 0.00 | 36 | 1005.6 |
| 20260505224826 | 55 | 232 | 5.0 | 11.0 | 0.00 | 0.00 | 0.00 | 36 | 1005.6 |
| 20260505224338 | 56 | 360 | 5.0 | 10.0 | 0.00 | 0.00 | 0.00 | 37 | 1005.5 |
| 20260505223826 | 56 | 360 | 3.0 | 11.0 | 0.00 | 0.00 | 0.00 | 37 | 1005.6 |
| 20260505223357 | 56 | 360 | 4.0 | 11.0 | 0.00 | 0.00 | 0.00 | 36 | 1005.6 |
| 20260505222825 | 56 | 360 | 2.0 | 11.0 | 0.00 | 0.00 | 0.00 | 36 | 1005.6 |
| 20260505222336 | 56 | 360 | 5.0 | 13.0 | 0.00 | 0.00 | 0.00 | 36 | 1005.6 |
| 20260505221846 | 56 | 360 | 6.0 | 13.0 | 0.00 | 0.00 | 0.00 | 36 | 1005.5 |
| 20260505221339 | 56 | 360 | 7.0 | 10.0 | 0.00 | 0.00 | 0.00 | 36 | 1005.5 |
| 20260505220828 | 56 | 360 | 4.0 | 12.0 | 0.00 | 0.00 | 0.00 | 35 | 1005.5 |
| 20260505220339 | 56 | 360 | 7.0 | 14.0 | 0.00 | 0.00 | 0.00 | 35 | 1005.6 |
| 20260505215848 | 56 | 360 | 5.0 | 14.0 | 0.00 | 0.00 | 0.00 | 36 | 1005.6 |
| 20260505215335 | 56 | 360 | 4.0 | 11.0 | 0.00 | 0.00 | 0.00 | 36 | 1005.7 |
| 20260505214823 | 56 | 360 | 4.0 | 12.0 | 0.00 | 0.00 | 0.00 | 35 | 1005.6 |
| 20260505214334 | 56 | 360 | 6.0 | 14.0 | 0.00 | 0.00 | 0.00 | 35 | 1005.5 |
| 20260505213841 | 56 | 360 | 8.0 | 14.0 | 0.00 | 0.00 | 0.00 | 34 | 1005.6 |
| 20260505213352 | 56 | 360 | 6.0 | 12.0 | 0.00 | 0.00 | 0.00 | 35 | 1005.6 |
| 20260505212840 | 56 | 360 | 6.0 | 12.0 | 0.00 | 0.00 | 0.00 | 33 | 1005.5 |
| 20260505212346 | 56 | 236 | 3.0 | 11.0 | 0.00 | 0.00 | 0.00 | 35 | 1005.5 |
| 20260505211836 | 56 | 360 | 6.0 | 14.0 | 0.00 | 0.00 | 0.00 | 32 | 1005.5 |
| 20260505211328 | 57 | 360 | 9.0 | 14.0 | 0.00 | 0.00 | 0.00 | 33 | 1005.6 |
| 20260505210831 | 57 | 5 | 5.0 | 13.0 | 0.00 | 0.00 | 0.00 | 32 | 1005.6 |
| 20260505210335 | 57 | 25 | 8.0 | 13.0 | 0.00 | 0.00 | 0.00 | 33 | 1005.6 |
| 20260505205845 | 57 | 360 | 7.0 | 13.0 | 0.00 | 0.00 | 0.00 | 35 | 1005.5 |
| 20260505205333 | 56 | 360 | 4.0 | 15.0 | 0.00 | 0.00 | 0.00 | 34 | 1005.5 |
| 20260505204823 | 56 | 360 | 6.0 | 15.0 | 0.00 | 0.00 | 0.00 | 35 | 1005.5 |
| 20260505204334 | 56 | 360 | 6.0 | 14.0 | 0.00 | 0.00 | 0.00 | 34 | 1005.5 |
| 20260505203823 | 56 | 360 | 7.0 | 11.0 | 0.00 | 0.00 | 0.00 | 34 | 1005.7 |
| 20260505203333 | 56 | 360 | 5.0 | 12.0 | 0.00 | 0.00 | 0.00 | 35 | 1005.8 |
| 20260505202824 | 56 | 360 | 5.0 | 12.0 | 0.00 | 0.00 | 0.00 | 34 | 1006.0 |
| 20260505202332 | 56 | 360 | 5.0 | 12.0 | 0.00 | 0.00 | 0.00 | 35 | 1005.8 |
| 20260505201841 | 56 | 242 | 7.0 | 12.0 | 0.00 | 0.00 | 0.00 | 34 | 1005.7 |
| 20260505201352 | 56 | 360 | 6.0 | 13.0 | 0.00 | 0.00 | 0.00 | 34 | 1005.7 |
| 20260505200834 | 56 | 360 | 8.0 | 13.0 | 0.00 | 0.00 | 0.00 | 32 | 1005.8 |
| 20260505200339 | 56 | 360 | 1.0 | 15.0 | 0.00 | 0.00 | 0.00 | 31 | 1005.8 |
| 20260505195826 | 57 | 360 | 9.0 | 15.0 | 0.00 | 0.00 | 0.00 | 30 | 1005.9 |
| 20260505195335 | 57 | 360 | 6.0 | 12.0 | 0.00 | 0.00 | 0.00 | 31 | 1005.8 |
| 20260505194825 | 57 | 360 | 8.0 | 12.0 | 0.00 | 0.00 | 0.00 | 33 | 1005.9 |
| 20260505194336 | 56 | 360 | 4.0 | 12.0 | 0.00 | 0.00 | 0.00 | 32 | 1006.0 |
| 20260505193824 | 56 | 360 | 7.0 | 19.0 | 0.00 | 0.00 | 0.00 | 32 | 1006.0 |
| 20260505193400 | 56 | 360 | 9.0 | 19.0 | 0.00 | 0.00 | 0.00 | 32 | 1005.8 |
| 20260505192847 | 56 | 360 | 7.0 | 16.0 | 0.00 | 0.00 | 0.00 | 34 | 1006.0 |
| 20260505192356 | 56 | 360 | 8.0 | 17.0 | 0.00 | 0.00 | 0.00 | 32 | 1006.1 |
| 20260505191842 | 56 | 360 | 7.0 | 17.0 | 0.00 | 0.00 | 0.00 | 33 | 1006.2 |
| 20260505191348 | 56 | 360 | 3.0 | 17.0 | 0.00 | 0.00 | 0.00 | 34 | 1006.2 |
| 20260505190836 | 56 | 360 | 10.0 | 17.0 | 0.00 | 0.00 | 0.00 | 31 | 1006.1 |
| 20260505190324 | 56 | 360 | 7.0 | 13.0 | 0.00 | 0.00 | 0.00 | 32 | 1006.1 |
| 20260505185832 | 56 | 360 | 4.0 | 13.0 | 0.00 | 0.00 | 0.00 | 35 | 1006.0 |
| 20260505185343 | 56 | 360 | 7.0 | 21.0 | 0.00 | 0.00 | 0.00 | 33 | 1006.0 |
| 20260505184832 | 56 | 360 | 7.0 | 21.0 | 0.00 | 0.00 | 0.00 | 31 | 1005.9 |
| 20260505184344 | 57 | 360 | 11.0 | 17.0 | 0.00 | 0.00 | 0.00 | 32 | 1005.9 |
| 20260505183829 | 57 | 360 | 4.0 | 12.0 | 0.00 | 0.00 | 0.00 | 34 | 1005.9 |
| 20260505183340 | 56 | 360 | 4.0 | 11.0 | 0.00 | 0.00 | 0.00 | 35 | 1005.9 |
| 20260505182851 | 56 | 360 | 5.0 | 15.0 | 0.00 | 0.00 | 0.00 | 33 | 1005.9 |
| 20260505182357 | 56 | 360 | 9.0 | 15.0 | 0.00 | 0.00 | 0.00 | 33 | 1005.9 |
| 20260505181839 | 56 | 360 | 8.0 | 15.0 | 0.00 | 0.00 | 0.00 | 33 | 1005.9 |
| 20260505181328 | 56 | 360 | 6.0 | 15.0 | 0.00 | 0.00 | 0.00 | 35 | 1005.9 |
| 20260505180837 | 56 | 360 | 7.0 | 18.0 | 0.00 | 0.00 | 0.00 | 32 | 1005.8 |
| 20260505180348 | 56 | 360 | 9.0 | 18.0 | 0.00 | 0.00 | 0.00 | 33 | 1005.7 |
| 20260505175854 | 56 | 360 | 9.0 | 15.0 | 0.00 | 0.00 | 0.00 | 33 | 1005.6 |
| 20260505175340 | 56 | 360 | 7.0 | 17.0 | 0.00 | 0.00 | 0.00 | 34 | 1005.6 |
| 20260505174846 | 55 | 360 | 8.0 | 14.0 | 0.00 | 0.00 | 0.00 | 36 | 1005.5 |
| 20260505174357 | 55 | 360 | 6.0 | 14.0 | 0.00 | 0.00 | 0.00 | 37 | 1005.6 |
| 20260505173824 | 55 | 360 | 7.0 | 14.0 | 0.00 | 0.00 | 0.00 | 35 | 1005.6 |
| 20260505173330 | 55 | 360 | 6.0 | 14.0 | 0.00 | 0.00 | 0.00 | 36 | 1005.5 |
| 20260505172822 | 54 | 360 | 4.0 | 14.0 | 0.00 | 0.00 | 0.00 | 39 | 1005.6 |
| 20260505172328 | 54 | 360 | 5.0 | 16.0 | 0.00 | 0.00 | 0.00 | 37 | 1005.5 |
| 20260505171837 | 54 | 360 | 6.0 | 16.0 | 0.00 | 0.00 | 0.00 | 37 | 1005.6 |
| 20260505171328 | 54 | 360 | 8.0 | 14.0 | 0.00 | 0.00 | 0.00 | 37 | 1005.5 |
| 20260505170835 | 54 | 360 | 5.0 | 13.0 | 0.00 | 0.00 | 0.00 | 38 | 1005.7 |
| 20260505170325 | 54 | 360 | 6.0 | 15.0 | 0.00 | 0.00 | 0.00 | 40 | 1005.8 |
| 20260505165836 | 54 | 360 | 9.0 | 15.0 | 0.00 | 0.00 | 0.00 | 38 | 1005.8 |
| 20260505165325 | 53 | 360 | 8.0 | 14.0 | 0.00 | 0.00 | 0.00 | 40 | 1005.7 |
| 20260505164834 | 53 | 360 | 9.0 | 15.0 | 0.00 | 0.00 | 0.00 | 39 | 1005.7 |
| 20260505164325 | 53 | 360 | 6.0 | 15.0 | 0.00 | 0.00 | 0.00 | 39 | 1005.5 |
| 20260505163831 | 53 | 360 | 6.0 | 10.0 | 0.00 | 0.00 | 0.00 | 40 | 1005.5 |
| 20260505163340 | 53 | 360 | 6.0 | 13.0 | 0.00 | 0.00 | 0.00 | 39 | 1005.5 |
| 20260505162831 | 53 | 196 | 7.0 | 13.0 | 0.00 | 0.00 | 0.00 | 39 | 1005.7 |
| 20260505162341 | 53 | 360 | 7.0 | 10.0 | 0.00 | 0.00 | 0.00 | 40 | 1005.4 |
| 20260505161848 | 53 | 360 | 6.0 | 11.0 | 0.00 | 0.00 | 0.00 | 42 | 1005.6 |
| 20260505161339 | 52 | 360 | 6.0 | 11.0 | 0.00 | 0.00 | 0.00 | 42 | 1005.6 |
| 20260505160826 | 52 | 360 | 3.0 | 9.0 | 0.00 | 0.00 | 0.00 | 44 | 1005.6 |
| 20260505160334 | 52 | 360 | 5.0 | 10.0 | 0.00 | 0.00 | 0.00 | 44 | 1005.7 |
| 20260505153338 | 51 | 360 | 7.0 | 13.0 | 0.00 | 0.00 | 0.00 | 43 | 1005.5 |
| 20260505152826 | 51 | 360 | 7.0 | 11.0 | 0.00 | 0.00 | 0.00 | 43 | 1005.6 |
| 20260505152335 | 51 | 11 | 5.0 | 11.0 | 0.00 | 0.00 | 0.00 | 43 | 1005.6 |
| 20260505151840 | 51 | 360 | 5.0 | 11.0 | 0.00 | 0.00 | 0.00 | 44 | 1005.7 |
| 20260505151332 | 51 | 360 | 5.0 | 11.0 | 0.00 | 0.00 | 0.00 | 44 | 1005.7 |
| 20260505150821 | 51 | 360 | 5.0 | 12.0 | 0.00 | 0.00 | 0.00 | 45 | 1005.7 |
| 20260505150332 | 51 | 360 | 7.0 | 12.0 | 0.00 | 0.00 | 0.00 | 44 | 1005.6 |
| 20260505140331 | 50 | 360 | 2.0 | 11.0 | 0.00 | 0.00 | 0.00 | 47 | 1006.0 |
| 20260505124843 | 49 | 360 | 3.0 | 7.0 | 0.00 | 0.00 | 0.00 | 51 | 1005.6 |
| 20260505124354 | 49 | 27 | 4.0 | 7.0 | 0.00 | 0.00 | 0.00 | 50 | 1005.4 |
| 20260505123842 | 48 | 360 | 3.0 | 7.0 | 0.00 | 0.00 | 0.00 | 51 | 1005.3 |
| 20260505123358 | 48 | 360 | 4.0 | 8.0 | 0.00 | 0.00 | 0.00 | 51 | 1005.4 |
| 20260505122848 | 48 | 360 | 2.0 | 10.0 | 0.00 | 0.00 | 0.00 | 51 | 1005.5 |
| 20260505122338 | 48 | 360 | 3.0 | 10.0 | 0.00 | 0.00 | 0.00 | 51 | 1005.7 |
| 20260505121828 | 48 | 360 | 5.0 | 8.0 | 0.00 | 0.00 | 0.00 | 51 | 1005.7 |
| 20260505121339 | 48 | 11 | 2.0 | 8.0 | 0.00 | 0.00 | 0.00 | 50 | 1005.2 |
| 20260505120845 | 48 | 5 | 3.0 | 9.0 | 0.00 | 0.00 | 0.00 | 50 | 1005.5 |
| 20260505120355 | 48 | 360 | 6.0 | 9.0 | 0.00 | 0.00 | 0.00 | 50 | 1005.7 |
| 20260505115823 | 48 | 360 | 4.0 | 9.0 | 0.00 | 0.00 | 0.00 | 50 | 1005.8 |
| 20260505115332 | 48 | 360 | 4.0 | 9.0 | 0.00 | 0.00 | 0.00 | 51 | 1005.6 |
| 20260505114822 | 48 | 360 | 4.0 | 7.0 | 0.00 | 0.00 | 0.00 | 50 | 1005.4 |
| 20260505114331 | 48 | 360 | 5.0 | 7.0 | 0.00 | 0.00 | 0.00 | 51 | 1005.0 |
| 20260505113838 | 48 | 360 | 2.0 | 9.0 | 0.00 | 0.00 | 0.00 | 51 | 1004.9 |
| 20260505113328 | 48 | 16 | 3.0 | 9.0 | 0.00 | 0.00 | 0.00 | 50 | 1004.3 |
| 20260505112838 | 48 | 360 | 6.0 | 9.0 | 0.00 | 0.00 | 0.00 | 50 | 1004.2 |
| 20260505112328 | 48 | 360 | 3.0 | 8.0 | 0.00 | 0.00 | 0.00 | 51 | 1004.8 |
| 20260505111835 | 48 | 360 | 3.0 | 8.0 | 0.00 | 0.00 | 0.00 | 51 | 1003.6 |
| 20260505111328 | 48 | 360 | 4.0 | 8.0 | 0.00 | 0.00 | 0.00 | 51 | 1003.7 |
| 20260505110834 | 49 | 360 | 4.0 | 8.0 | 0.00 | 0.00 | 0.00 | 51 | 1003.7 |
| 20260505110344 | 49 | 32 | 3.0 | 6.0 | 0.00 | 0.00 | 0.00 | 52 | 1004.1 |
| 20260505101841 | 49 | 360 | 4.0 | 16.0 | 0.00 | 0.00 | 0.00 | 49 | 1003.6 |
| 20260505101347 | 49 | 17 | 9.0 | 12.0 | 0.00 | 0.00 | 0.00 | 49 | 1003.5 |
| 20260505100835 | 50 | 360 | 5.0 | 13.0 | 0.00 | 0.00 | 0.00 | 49 | 1003.2 |
| 20260505100325 | 50 | 360 | 4.0 | 16.0 | 0.00 | 0.00 | 0.00 | 49 | 1003.1 |
| 20260505095834 | 50 | 31 | 7.0 | 16.0 | 0.00 | 0.00 | 0.00 | 49 | 1002.9 |
| 20260505095340 | 50 | 360 | 7.0 | 11.0 | 0.00 | 0.00 | 0.00 | 50 | 1003.4 |
| 20260505094830 | 50 | 360 | 5.0 | 14.0 | 0.00 | 0.00 | 0.00 | 50 | 1003.3 |
| 20260505094341 | 50 | 360 | 5.0 | 14.0 | 0.00 | 0.00 | 0.00 | 50 | 1003.4 |
| 20260505093827 | 50 | 360 | 5.0 | 14.0 | 0.00 | 0.00 | 0.00 | 50 | 1003.1 |
| 20260505093336 | 50 | 360 | 7.0 | 14.0 | 0.00 | 0.00 | 0.00 | 50 | 1003.2 |
| 20260505092825 | 50 | 360 | 6.0 | 12.0 | 0.00 | 0.00 | 0.00 | 49 | 1003.1 |
| 20260505092337 | 51 | 360 | 6.0 | 14.0 | 0.00 | 0.00 | 0.00 | 50 | 1002.7 |
| 20260505091827 | 51 | 360 | 8.0 | 18.0 | 0.00 | 0.00 | 0.00 | 50 | 1003.2 |